Regional Weather Roundup
Issued by NWS

Home | Current Version | Previous Version | Text Only | Print | Product List | Glossary On
Versions: 1 2 3 4 5 6 7 8 9 10 11 12 13 14 15 16 17 18 19 20 21 22 23 24 25 26 27 28 29 30 31 32 33 34 35 36 37 38 39 40 41 42 43 44 45 46 47 48 49 50
000
ASUS44 KFWD 281510
RWRTX
NORTH TEXAS HOURLY WEATHER ROUNDUP
NATIONAL WEATHER SERVICE FORT WORTH TX
1000 AM CDT THU AUG 28 2014

NOTE: "FAIR" INDICATES FEW OR NO CLOUDS BELOW 12,000 FEET WITH NO
SIGNIFICANT WEATHER AND/OR OBSTRUCTIONS TO VISIBILITY.

TXZ118-119-281600-
DALLAS/FORT WORTH METROPLEX

CITY           SKY/WX    TMP DP  RH WIND       PRES   REMARKS
DFW AIRPORT    MOSUNNY   85  68  56 S10       29.97S
DALLAS LOVE    MOSUNNY   83  68  60 S5        29.98S
FTW MEACHAM    SUNNY     86  67  52 SW12      29.97S
DAL-EXECUTIVE  SUNNY     86  68  54 S7        29.98S
FTW-ALLIANCE   MOSUNNY   85  67  54 S9G16     29.97S
FTW-NAS-JRB    SUNNY     88  65  46 S10       30.02R HX  90
FTW-SPINKS     SUNNY     84  68  58 S7        30.00R
ARLINGTON      SUNNY     84  68  58 S10       29.98S
GRAND PRAIRIE  SUNNY     82  68  61 S7        29.99S
MESQUITE       SUNNY     82  70  65 S6        29.99S
LANCASTER      SUNNY     83  68  59 S6        29.99S
$$

TXZ091>094-102>105-117-120-121-131>134-281600-
NORTH CENTRAL TEXAS

CITY           SKY/WX    TMP DP  RH WIND       PRES   REMARKS
SHRMAN/DENISON SUNNY     85  68  56 S12       30.00S
GAINESVILLE    SUNNY     82  69  63 S9        30.00S
BOWIE          SUNNY     83  66  56 S12       29.99S
BRIDGEPORT     SUNNY     85  63  47 SW10      30.00S
DECATUR        SUNNY     82  65  56 S8        29.99S
DENTON         SUNNY     85  68  56 S10       29.98S
MCKINNEY       SUNNY     84  69  60 S6        29.98S
GREENVILLE     SUNNY     86  68  54 SW5       29.99S
ROCKWALL       SUNNY     84  71  64 S6        29.98R
TERRELL        SUNNY     85  70  60 S9        29.99S
WAXAHACHIE     SUNNY     84  67  57 S9        30.00S
CLEBURNE       SUNNY     82  72  69 S3        30.00S
GRANBURY       SUNNY     86  66  51 S8        29.99S
$$

TXZ083>090-098>101-113>116-127>130-139>142-154-155-281600-
WESTERN NORTH TEXAS

CITY           SKY/WX    TMP DP  RH WIND       PRES   REMARKS
WICHITA FALLS  SUNNY     85  61  44 S9        29.95F
WF-KICKAPOO    SUNNY     85  59  40 SW12      29.97S
VERNON         MOSUNNY   87  56  34 S12       29.96S
ABILENE        SUNNY     84  63  49 S13       30.00S
ABILENE-DYESS  SUNNY     84  64  50 S13       29.98F
BRECKENRIDGE   SUNNY     88  62  41 S10       29.97S HAZE
GRAHAM         SUNNY     85  63  47 SE8       29.96S
MINERAL WELLS  SUNNY     83  65  54 S10       29.97F
STEPHENVILLE   SUNNY     83  65  54 S7        30.02S
COMANCHE         N/A     84  64  50 S8        30.00S
BROWNWOOD      SUNNY     82  64  54 S7        30.00S
COLEMAN        SUNNY     82  63  51 SW8       30.01S
BRADY          SUNNY     82  64  54 S9        30.01S
$$

TXZ143>147-156>162-174-175-281600-
CENTRAL TEXAS

CITY           SKY/WX    TMP DP  RH WIND       PRES   REMARKS
WACO           SUNNY     83  70  64 S7        29.98R
WACO-TSTC      SUNNY     84  70  61 S7        29.98R
WACO-MCGREGOR  SUNNY     84  68  58 S7        29.99S
HILLSBORO      SUNNY     85  68  56 S8        29.98S
CORSICANA      SUNNY     85  71  63 VRB7      29.99S HX  90
MEXIA          SUNNY     82  72  71 SE7       29.98S
HEARNE           N/A     83  74  73 SE5       29.97S HX  90
CAMERON        MOSUNNY   85  74  68 SE5       29.96S HX  92
TEMPLE         PTSUNNY   84  68  58 S8        29.98S
KILLEEN        MOSUNNY   82  72  69 SE9       29.99R
KILLEEN-SKYLRK SUNNY     82  68  61 SE7       29.99S
FORT HOOD      SUNNY     85  71  63 VRB5      29.99R HX  90
GATESVILLE     SUNNY     82  70  65 S8        30.01S
HAMILTON       SUNNY     83  65  53 S7        30.01S
$$

TXZ095>097-106>112-122>126-135>138-148>153-164>167-281600-
EAST TEXAS

CITY           SKY/WX    TMP DP  RH WIND       PRES   REMARKS
PARIS          MOSUNNY   82  66  57 SW6       30.01R
SULPHUR SPRNGS MOSUNNY   86  68  55 S6        30.01S
CLARKSVILLE    SUNNY     84  69  60 S5        30.00S
MOUNT PLEASANT MOSUNNY   83  70  64 S3        30.02R
GILMER         SUNNY     82  72  69 CALM      30.02R
MINEOLA        SUNNY     82  72  69 E3        30.00S
TYLER          PTSUNNY   86  71  60 SE7       29.99S HX  91
LONGVIEW       PTSUNNY   84  71  65 CALM      29.99R
MARSHALL       SUNNY     89  74  62 CALM      30.01S HX  98
ATHENS         MOSUNNY   82  72  69 SE6       29.98S
PALESTINE      CLOUDY    83  73  72 SE5       30.00R
JACKSONVILLE   MOSUNNY   84  72  68 E5        30.02S
HENDERSON      SUNNY     85  71  61 SE5       30.00S HX  90
NACOGDOCHES    SUNNY     84  73  70 SE7       29.99S HX  91
LUFKIN         CLOUDY    85  74  69 SE7       29.99R HX  92
$$

SUPPLEMENTAL OBSERVATIONS (CENTRAL)

CITY           SKY/WX    TMP DP  RH WIND       PRES   REMARKS
PAT MAYSE LAKE   N/A     81  70  69 SE6         N/A
PALESTINE        N/A     84  73  70 E2          N/A  HX  91
MCGREGOR         N/A     84  68  58 S6          N/A
TEMPLE           N/A     84  72  65 SE6         N/A
$$

SUPPLEMENTAL OBSERVATIONS (WEST)

CITY           SKY/WX    TMP DP  RH WIND       PRES   REMARKS
MILLERS CREEK    N/A     88  63  42 SW15        N/A
POSSUM KINGDOM   N/A    N/A N/A N/A S9          N/A
GRANBURY         N/A     86  66  51 S10         N/A
HAMBY            N/A     84  61  45 S15         N/A
$$

SUPPLEMENTAL OBSERVATIONS (EAST)

CITY           SKY/WX    TMP DP  RH WIND       PRES   REMARKS
CLARKSVILLE      N/A     86  70  58 SE3         N/A  HX  90
TEXARKANA        N/A     88  68  51 E1          N/A  HX  91
LINDEN           N/A     86  70  58 S1          N/A  HX  90
GILMER           N/A     86  72  62 S1          N/A  HX  92
HENDERSON        N/A     88  73  62 SW2         N/A  HX  96
LUFKIN           N/A     88  75  66 MISG        N/A  HX  97
N SABINE NF      N/A     90  82  79 MISG        N/A  HX 111
S SABINE NF      N/A     88  73  62 E3          N/A  HX  96
$$

SUPPLEMENTAL OBSERVATIONS ARE A COLLECTION OF AUTOMATED INSTRUMENTS
THAT ARE MAINTAINED BY A VARIETY OF FEDERAL AND STATE AGENCIES.
CERTAIN ELEMENTS...SUCH AS HUMIDITY VALUES AND SUSTAINED WIND
SPEEDS...MAY BE APPROXIMATED.




USA.gov is the U.S. government's official web portal to all federal, state and local government web resources and services.